[[{"header":{"parameterUnit":"m.s-1","parameterCategory":1,"la1":30.2991,"la2":30.254,"lo1":-89.0895,"lo2":-89.0444,"dy":0.0017,"dx":0.0017,"nx":28,"ny":28,"refTime":"2024-06-27T03:00:00:Z","depth":0,"parameterNumber":2,"parameterNumberName":"U-component_of_WINDS"},"data":[0,0,0,0,0,0,0,0,0,0,0,0,0,0,0,0,0,0,0,0,0,0,0,0,0,0,0,0,0,0,0,0,0,0,0,0,0,0,0,0,0,0,0,0,0,0,0,0,0,0,0,0,0,0,0,0,0,0,2.3728,2.3728,0,2.381,2.3811,2.3812,2.3809,2.3807,2.3806,2.3805,2.3895,2.3898,2.3902,0,0,0,0,0,0,0,0,0,0,0,0,0,2.3571,2.3574,2.3727,2.3728,2.373,2.381,2.3811,2.3812,2.3809,2.3807,2.3806,2.3805,2.3894,2.3898,2.3902,0,0,0,0,0,0,0,0,0,0,0,0,0,2.3645,2.3575,2.3727,2.3737,2.3739,2.381,2.3811,2.3812,2.3809,2.3807,2.3806,2.3804,2.3892,2.3897,2.3902,2.397,0,0,2.3918,2.3921,0,0,0,0,0,0,0,0,2.3641,2.365,2.3735,2.3737,2.3739,2.3797,2.3789,2.3865,2.381,2.3783,2.3805,2.3803,2.3864,2.3871,2.3891,2.3974,2.3978,2.3919,2.3922,2.3924,2.3926,0,0,0,0,0,0,0,2.3635,2.3647,2.376,2.3736,2.3739,2.3739,2.3748,2.3803,2.3832,2.3785,2.3785,2.3794,2.3865,2.3886,2.3893,2.3979,2.3919,2.3923,2.3927,2.3929,2.4121,2.4123,0,0,0,0,0,0,2.3627,2.3643,2.3758,2.3763,2.3684,2.3743,2.3753,2.378,2.3832,2.3838,2.3796,2.3794,2.3878,2.3887,2.3896,2.3978,2.3924,2.3929,2.3932,2.4119,2.4122,2.4124,0,0,0,0,0,0,2.3624,2.3638,2.3754,2.3703,2.3718,2.3748,2.3779,2.3783,2.3804,2.384,2.3846,2.3812,2.3877,2.3889,2.3951,2.3981,2.3931,2.3936,2.4117,2.412,2.4123,2.4143,0,0,0,0,0,0,2.362,2.3637,2.3662,2.3703,2.372,2.3807,2.3781,2.3786,2.3812,2.3811,2.3856,2.3862,2.3876,2.3943,2.3956,2.3988,2.394,2.4114,2.4118,2.4122,2.414,2.4147,2.4152,0,0,0,0,0,2.3614,2.3665,2.3663,2.3677,2.3752,2.3808,2.3818,2.3832,2.3815,2.3841,2.3864,2.3861,2.3976,2.395,2.3964,2.3998,2.4113,2.4117,2.4122,2.4137,2.4145,2.4152,0,0,0,0,0,0,2.3629,2.3671,2.3669,2.3735,2.3768,2.3808,2.3841,2.384,2.388,2.3877,2.3894,2.3904,2.3967,2.3988,2.3959,2.4065,2.4042,2.405,2.4049,2.4057,2.4063,2.4057,2.3945,0,0,0,0,0,2.3639,2.368,2.3715,2.377,2.3787,2.3811,2.3836,2.3843,2.3879,2.3894,2.3921,2.3957,2.4001,2.403,2.4073,2.4143,2.4153,2.4173,2.4179,2.4184,2.419,2.4229,2.4238,2.4139,2.4139,2.4139,0,0,2.3662,2.369,2.3716,2.3774,2.38,2.3844,2.3823,2.387,2.3902,2.3901,2.3961,2.3983,2.4024,2.409,2.4121,2.411,2.422,2.4189,2.4193,2.4197,2.4235,2.4244,2.4252,2.4142,2.4141,2.4141,0,0,2.3726,2.3751,2.38,2.3826,2.3865,2.3881,2.3892,2.3932,2.3946,2.4006,2.4006,2.4045,2.4121,2.415,2.4175,2.4248,2.4247,2.4261,2.4294,2.4331,2.4339,2.4346,2.4373,2.4382,2.4268,2.4268,2.4268,0,2.3751,2.3814,2.3825,2.3872,2.3897,2.3896,2.3946,2.3971,2.4023,2.4042,2.4029,2.4123,2.415,2.4223,2.4241,2.4261,2.4275,2.4257,2.4336,2.4344,2.4351,2.4376,2.4386,2.4269,2.4269,2.4269,2.4269,0,2.3842,2.3886,2.392,2.3969,2.3998,2.4046,2.4065,2.4094,2.4099,2.4116,2.4177,2.421,2.4259,2.4276,2.4282,2.435,2.4342,2.4332,2.431,2.4361,2.4386,2.4396,2.4271,2.4271,2.427,2.427,0,0,2.392,2.3971,2.3984,2.4005,2.4048,2.4083,2.4131,2.4177,2.4202,2.4237,2.4278,2.4341,2.4332,2.436,2.4369,2.4402,2.4458,2.4388,2.4389,2.44,2.4535,2.4543,2.4554,2.4457,2.4458,2.446,2.4532,0,2.3988,2.4072,2.4082,2.4157,2.4198,2.4196,2.4238,2.4269,2.4286,2.4324,2.4344,2.4388,2.4373,2.4389,2.4421,2.4444,2.4485,2.4439,2.4497,2.4499,2.4487,2.4567,2.4575,2.4642,2.4542,2.4543,2.4544,0,2.408,2.4116,2.4194,2.423,2.4248,2.4285,2.4328,2.4364,2.4399,2.4409,2.444,2.4444,2.4494,2.4468,2.4538,2.4506,2.4531,2.4545,2.4548,2.4555,2.4525,2.4577,2.4663,2.4673,2.4559,2.4558,2.4557,0,2.413,2.4198,2.4253,2.4271,2.4315,2.4341,2.436,2.4394,2.4421,2.4458,2.4476,2.4519,2.4543,2.4578,2.4594,2.4573,2.4663,2.4638,2.4674,2.4674,2.4695,2.4693,2.4787,2.4708,2.4708,2.4708,2.4708,0,2.4206,2.4254,2.4275,2.431,2.4363,2.4375,2.4428,2.4447,2.4477,2.4515,2.4517,2.4554,2.4572,2.4612,2.4625,2.4681,2.4692,2.4703,2.4706,2.4703,2.4702,2.472,2.4716,2.4711,2.471,2.4709,2.4709,0,2.4271,2.4287,2.4347,2.4382,2.4392,2.443,2.4461,2.4495,2.451,2.4559,2.4572,2.4597,2.4644,2.4662,2.472,2.4729,2.4794,2.4793,2.4781,2.4783,2.4818,2.4814,2.4927,2.4943,2.4853,2.4854,2.4854,0,2.4319,2.4356,2.4394,2.4419,2.4439,2.448,2.4506,2.4519,2.4547,2.4589,2.4618,2.4663,2.4701,2.4776,2.48,2.4844,2.4845,2.4881,2.4852,2.4848,2.4847,2.4844,2.4848,2.4887,2.4888,2.4889,2.489,0,2.4403,2.4409,2.4446,2.4486,2.4517,2.455,2.4582,2.4603,2.462,2.4652,2.4698,2.4727,2.4784,2.4831,2.4875,2.4897,2.4897,2.4898,2.4909,2.4907,2.4899,2.4905,2.4797,2.4896,2.4896,2.4895,2.4895,2.4894,2.4462,2.4494,2.4526,2.4567,2.4592,2.4621,2.4654,2.4673,2.4712,2.4758,2.4764,2.4814,2.4848,2.4908,2.4931,2.4971,2.4962,2.4977,2.4982,2.4985,2.4988,2.4892,2.4979,2.4979,2.4979,2.4979,2.4979,0,2.4547,2.4567,2.4604,2.4648,2.4681,2.4675,2.4709,2.4738,2.4781,2.4812,2.4848,2.4901,2.4945,2.4972,2.5017,2.5044,2.5045,2.5055,2.5054,2.5059,2.4993,2.498,2.5054,2.5054,2.5054,2.5054,2.5054,2.5054,2.4595,2.4649,2.4658,2.4725,2.4745,2.4792,2.4812,2.484,2.4864,2.4923,2.4959,2.4975,2.5005,2.5051,2.5092,2.5099,2.5116,2.5127,2.5133,2.5072,2.5064,2.5057,2.5044,2.513,2.513,2.5196,2.5197,2.5197]},{"header":{"parameterUnit":"m.s-1","parameterCategory":1,"la1":30.2991,"la2":30.254,"lo1":-89.0895,"lo2":-89.0444,"dy":0.0017,"dx":0.0017,"nx":28,"ny":28,"refTime":"2024-06-27T03:00:00:Z","depth":0,"parameterNumber":3,"parameterNumberName":"V-component_of_WINDS"},"data":[0,0,0,0,0,0,0,0,0,0,0,0,0,0,0,0,0,0,0,0,0,0,0,0,0,0,0,0,0,0,0,0,0,0,0,0,0,0,0,0,0,0,0,0,0,0,0,0,0,0,0,0,0,0,0,0,0,0,6.264,6.2641,0,6.273,6.2731,6.2732,6.274,6.2739,6.2738,6.2737,6.2821,6.2825,6.2828,0,0,0,0,0,0,0,0,0,0,0,0,0,6.2469,6.2472,6.264,6.2641,6.2642,6.273,6.2731,6.2732,6.274,6.2739,6.2738,6.2737,6.282,6.2824,6.2828,0,0,0,0,0,0,0,0,0,0,0,0,0,6.2549,6.2473,6.2639,6.2657,6.2659,6.273,6.2731,6.2733,6.274,6.2739,6.2738,6.2736,6.2819,6.2824,6.2828,6.2885,0,0,6.2843,6.2845,0,0,0,0,0,0,0,0,6.2545,6.2556,6.2653,6.2656,6.2659,6.2723,6.2702,6.2784,6.2741,6.2709,6.2737,6.2736,6.2789,6.2796,6.2816,6.2889,6.2893,6.2843,6.2846,6.2848,6.2849,0,0,0,0,0,0,0,6.2539,6.2552,6.2675,6.2654,6.2658,6.2658,6.2668,6.2717,6.2756,6.2712,6.2713,6.2724,6.279,6.2811,6.2818,6.2894,6.2843,6.2847,6.285,6.2852,6.3022,6.3024,0,0,0,0,0,0,6.2531,6.2547,6.2672,6.2678,6.2597,6.2663,6.2674,6.2703,6.2755,6.2762,6.2725,6.2724,6.2804,6.2813,6.2821,6.2893,6.2848,6.2852,6.2855,6.3021,6.3023,6.3025,0,0,0,0,0,0,6.2528,6.2542,6.2669,6.2613,6.2629,6.2667,6.27,6.2706,6.2727,6.2765,6.2771,6.274,6.2803,6.2814,6.2871,6.2896,6.2854,6.2859,6.3019,6.3021,6.3024,6.3037,0,0,0,0,0,0,6.2523,6.2541,6.2564,6.2613,6.2632,6.2718,6.2702,6.2709,6.2736,6.2735,6.2781,6.2787,6.2803,6.2864,6.2875,6.2902,6.2862,6.3016,6.302,6.3023,6.3034,6.304,6.3044,0,0,0,0,0,6.2517,6.2561,6.2565,6.258,6.2662,6.272,6.273,6.275,6.2738,6.2761,6.2786,6.2785,6.2892,6.2869,6.2883,6.2911,6.3015,6.3019,6.3023,6.3032,6.3039,6.3044,0,0,0,0,0,0,6.2509,6.2568,6.2573,6.2635,6.2673,6.2721,6.275,6.2756,6.2795,6.2793,6.2814,6.2824,6.288,6.2901,6.2875,6.2971,6.2952,6.2959,6.2955,6.2961,6.2966,6.2959,6.2866,0,0,0,0,0,6.2516,6.256,6.2608,6.2659,6.2678,6.2711,6.2737,6.275,6.2789,6.2804,6.2833,6.2868,6.291,6.2937,6.2977,6.3038,6.3048,6.3064,6.3069,6.3073,6.3078,6.3114,6.3122,6.3037,6.3037,6.3037,0,0,6.2528,6.2566,6.2591,6.2658,6.2689,6.2734,6.2724,6.277,6.2803,6.2809,6.2866,6.2889,6.293,6.299,6.3017,6.3009,6.3105,6.3078,6.3081,6.3084,6.3119,6.3127,6.3134,6.304,6.3039,6.3039,0,0,6.2573,6.2606,6.2653,6.2686,6.2735,6.2757,6.2769,6.2817,6.2834,6.2892,6.2899,6.2937,6.3008,6.3038,6.3063,6.3125,6.3127,6.3138,6.3163,6.3198,6.3205,6.3211,6.3234,6.3242,6.3143,6.3143,6.3143,0,6.2581,6.265,6.2676,6.2724,6.2754,6.2767,6.2814,6.2844,6.2901,6.2921,6.2912,6.3004,6.3032,6.3101,6.3117,6.3136,6.315,6.3132,6.3202,6.3208,6.3214,6.3237,6.3245,6.3144,6.3144,6.3144,6.3144,0,6.2659,6.2707,6.2739,6.28,6.2833,6.288,6.2912,6.2943,6.2954,6.2978,6.3037,6.3073,6.3122,6.3139,6.3149,6.321,6.3204,6.3198,6.3179,6.3223,6.3245,6.3253,6.3146,6.3145,6.3145,6.3145,0,0,6.2697,6.2776,6.2788,6.2817,6.2874,6.2911,6.2959,6.3012,6.3038,6.3078,6.3119,6.3182,6.3179,6.3207,6.322,6.3251,6.3301,6.3242,6.3244,6.3252,6.3372,6.3376,6.3386,6.3303,6.3305,6.3306,6.3369,0,6.2749,6.284,6.2867,6.2942,6.2987,6.3003,6.3045,6.3084,6.3109,6.315,6.3175,6.322,6.3212,6.3229,6.3261,6.3288,6.3325,6.3284,6.334,6.3342,6.333,6.3397,6.34,6.3457,6.3377,6.3379,6.338,0,6.2821,6.2868,6.2949,6.3005,6.3025,6.3063,6.3115,6.3154,6.3199,6.3215,6.325,6.3262,6.3313,6.3293,6.3364,6.3336,6.3361,6.3378,6.3381,6.3386,6.3363,6.3404,6.3476,6.3485,6.3393,6.3392,6.3391,0,6.2842,6.2926,6.2986,6.3011,6.3076,6.3103,6.3131,6.3176,6.3207,6.3251,6.3272,6.332,6.3347,6.3384,6.3409,6.3392,6.3478,6.346,6.3492,6.3491,6.3508,6.3506,6.3585,6.3525,6.3524,6.3524,6.3524,0,6.2897,6.2946,6.2998,6.3034,6.3091,6.3121,6.3175,6.3203,6.3244,6.3286,6.3301,6.334,6.3371,6.3413,6.3433,6.349,6.3501,6.3515,6.3519,6.3513,6.3512,6.3529,6.3525,6.3527,6.3526,6.3526,6.3525,0,6.2929,6.2966,6.3033,6.3092,6.3108,6.3147,6.3197,6.3233,6.326,6.3313,6.3327,6.3368,6.342,6.345,6.3513,6.3527,6.359,6.3592,6.3576,6.3578,6.3608,6.3605,6.3701,6.3715,6.3645,6.3645,6.3646,0,6.2961,6.3,6.3066,6.3097,6.3127,6.3176,6.321,6.3242,6.3276,6.3334,6.3363,6.3417,6.3461,6.3543,6.3577,6.3627,6.3631,6.3661,6.3638,6.3632,6.3632,6.363,6.3634,6.3664,6.3665,6.3666,6.3666,0,6.3015,6.3033,6.3082,6.3139,6.318,6.3225,6.3269,6.3294,6.3334,6.3371,6.3426,6.3461,6.353,6.3583,6.3637,6.3663,6.3671,6.3674,6.3684,6.3678,6.3667,6.3674,6.3587,6.3671,6.367,6.367,6.367,6.3669,6.3048,6.3085,6.3139,6.3194,6.3232,6.3275,6.3314,6.3348,6.3396,6.3457,6.3473,6.3531,6.3578,6.3652,6.3681,6.3726,6.3721,6.3735,6.3738,6.3741,6.3743,6.3661,6.3736,6.3736,6.3736,6.3736,6.3736,0,6.3103,6.314,6.3191,6.3256,6.33,6.3309,6.336,6.3395,6.3448,6.3493,6.3539,6.3604,6.3657,6.3698,6.3752,6.3781,6.3786,6.3794,6.3791,6.3798,6.3744,6.3731,6.3789,6.3789,6.3789,6.3789,6.3789,6.3789,6.3136,6.3201,6.3226,6.3309,6.3345,6.3406,6.3435,6.3474,6.3511,6.3585,6.3631,6.3659,6.3702,6.3761,6.381,6.3821,6.384,6.3847,6.3858,6.3807,6.3801,6.3796,6.3783,6.3851,6.3851,6.3908,6.3909,6.3909]}]]